Language: 


Des rapports , des résumés tant et plus, au choix de chacun....


Données statistiques de la station
Quotidien Rapport Février 19, 2017 Unités:  Anglais    Métrique   les deux
« Précédent Jour
Suivant Jour »
Quotidien Hebdomadaire Mensuel Annuel Actuel
  Haut: Bas: Moyen:
Température: 52.5 °F 32 °F 44.4 °F
Pt de rosée: 48.2 °F 36.3 °F 42.4 °F
Humidité: 98 % 0 % 93 %
Vitesse du vent: 14.3 mph 0 mph 5.8 mph
Rafales: 17.4 mph - -
Vent:- - WSW
Pression: 30.3 in 30.1 in -
Précipitation: 0 in    
Historical Graphs
 
 
Données statistiques pour Février 19, 2017
Heure Température Point de rosée Pression Vent Vitesse du vent Refales Humidité Pluie (taux horaire)
00:01 39.9 °F 39.4 °F 30.3 in South 3.6 mph 5.4 mph 98 % 0 in
00:06 39.9 °F 39.4 °F 30.3 in WSW 2.5 mph 4 mph 98 % 0 in
00:11 39.9 °F 39.4 °F 30.3 in SSW 3.8 mph 4.9 mph 98 % 0 in
00:21 39.7 °F 39.2 °F 30.3 in SSW 5.4 mph 6.9 mph 98 % 0 in
00:26 39.7 °F 39.2 °F 30.2 in WSW 4 mph 7.2 mph 98 % 0 in
00:31 39.6 °F 39 °F 30.2 in SSW 4 mph 7.2 mph 98 % 0 in
00:36 39.6 °F 39 °F 30.2 in WSW 6 mph 7.2 mph 98 % 0 in
00:41 39.6 °F 39 °F 30.3 in West 6.3 mph 6.3 mph 98 % 0 in
00:46 39.4 °F 38.8 °F 30.3 in WSW 4.3 mph 7.4 mph 98 % 0 in
00:51 39.6 °F 39 °F 30.3 in WSW 6 mph 7.4 mph 98 % 0 in
00:56 39.6 °F 39 °F 30.3 in SW 4 mph 7.4 mph 98 % 0 in
01:01 39.6 °F 39 °F 30.3 in WSW 5.8 mph 7.4 mph 98 % 0 in
01:06 39.4 °F 38.8 °F 30.3 in WSW 6.5 mph 7.8 mph 98 % 0 in
01:11 39.4 °F 38.8 °F 30.3 in West 5.8 mph 7.8 mph 98 % 0 in
01:16 39.4 °F 38.8 °F 30.3 in WSW 6 mph 7.6 mph 98 % 0 in
01:21 39.4 °F 38.8 °F 30.3 in SW 6.3 mph 8.1 mph 98 % 0 in
01:26 39.2 °F 38.7 °F 30.2 in WSW 5.8 mph 8.1 mph 98 % 0 in
01:31 39 °F 38.5 °F 30.2 in WSW 5.6 mph 7.4 mph 98 % 0 in
01:36 39 °F 38.5 °F 30.2 in SSW 8.1 mph 8.1 mph 98 % 0 in
01:41 38.8 °F 38.5 °F 30.2 in SSW 5.4 mph 8.1 mph 98 % 0 in
01:46 38.8 °F 38.5 °F 30.2 in SW 4 mph 7.8 mph 98 % 0 in
01:51 38.8 °F 38.5 °F 30.2 in WSW 6 mph 8.1 mph 98 % 0 in
01:56 38.8 °F 38.5 °F 30.2 in WSW 6.9 mph 8.7 mph 98 % 0 in
02:02 32 °F 38.3 °F 30.2 in SW 6 mph 8.7 mph 0 % 0 in
02:07 38.7 °F 38.1 °F 30.2 in WSW 5.4 mph 8.1 mph 98 % 0 in
02:12 38.7 °F 38.1 °F 30.2 in WSW 8.5 mph 8.5 mph 98 % 0 in
02:17 38.7 °F 38.1 °F 30.2 in WSW 6.3 mph 8.7 mph 98 % 0 in
02:22 38.7 °F 38.1 °F 30.2 in SW 6.5 mph 8.7 mph 98 % 0 in
02:27 38.7 °F 38.1 °F 30.2 in WSW 5.6 mph 7.8 mph 98 % 0 in
02:32 38.7 °F 38.1 °F 30.2 in SSW 4 mph 6.3 mph 98 % 0 in
02:37 38.8 °F 38.5 °F 30.2 in SW 4 mph 6 mph 98 % 0 in
02:42 38.8 °F 38.5 °F 30.2 in WSW 4 mph 6.3 mph 98 % 0 in
02:47 38.8 °F 38.5 °F 30.2 in SW 7.2 mph 7.2 mph 98 % 0 in
02:52 38.8 °F 38.5 °F 30.2 in SSW 4.3 mph 7.8 mph 98 % 0 in
02:57 38.8 °F 38.5 °F 30.2 in SSW 3.1 mph 7.8 mph 98 % 0 in
03:02 38.8 °F 38.5 °F 30.2 in SSW 3.4 mph 7.8 mph 98 % 0 in
03:07 39 °F 38.5 °F 30.2 in WSW 4.3 mph 6 mph 98 % 0 in
03:12 39 °F 38.5 °F 30.2 in SSW 5.4 mph 7.6 mph 98 % 0 in
03:17 39.2 °F 38.7 °F 30.2 in SSW 4.3 mph 7.6 mph 98 % 0 in
03:22 39.2 °F 38.7 °F 30.2 in SSW 7.6 mph 7.8 mph 98 % 0 in
03:27 39.2 °F 38.7 °F 30.2 in SSW 4.9 mph 7.8 mph 98 % 0 in
03:32 39.4 °F 38.8 °F 30.2 in WSW 5.4 mph 8.1 mph 98 % 0 in
03:37 39.4 °F 38.8 °F 30.2 in WSW 4.3 mph 10.3 mph 98 % 0 in
03:42 39.6 °F 39 °F 30.2 in WSW 5.8 mph 10.3 mph 98 % 0 in
03:47 39.6 °F 39 °F 30.2 in SSW 5.4 mph 6.3 mph 98 % 0 in
03:52 39.7 °F 39.2 °F 30.2 in SW 5.6 mph 8.1 mph 98 % 0 in
03:57 39.7 °F 39.2 °F 30.2 in SW 6.3 mph 8.1 mph 98 % 0 in
04:02 39.7 °F 39.2 °F 30.2 in SSW 5.8 mph 6.5 mph 98 % 0 in
04:07 39.7 °F 39.2 °F 30.2 in SW 7.8 mph 7.8 mph 98 % 0 in
04:12 39.7 °F 39.2 °F 30.2 in WSW 5.6 mph 7.8 mph 98 % 0 in
04:17 39.7 °F 39.2 °F 30.2 in SSW 3.4 mph 7.8 mph 98 % 0 in
04:22 39.7 °F 39.2 °F 30.2 in SW 5.6 mph 6.5 mph 98 % 0 in
04:27 39.7 °F 39.2 °F 30.2 in SSW 4.7 mph 6.5 mph 98 % 0 in
04:32 39.7 °F 39.2 °F 30.2 in WSW 6.3 mph 6.5 mph 98 % 0 in
04:37 39.6 °F 39 °F 30.2 in SSW 4.9 mph 7.2 mph 98 % 0 in
04:42 39.6 °F 39 °F 30.2 in SSW 5.6 mph 8.7 mph 98 % 0 in
04:47 39.6 °F 39 °F 30.2 in SW 6.3 mph 8.7 mph 98 % 0 in
04:52 39.4 °F 38.8 °F 30.2 in South 3.6 mph 6.3 mph 98 % 0 in
04:57 39.4 °F 38.8 °F 30.2 in SW 4.3 mph 6.5 mph 98 % 0 in
05:02 39.2 °F 38.7 °F 30.2 in SSW 4.3 mph 6.5 mph 98 % 0 in
05:07 39.2 °F 38.7 °F 30.2 in SW 4.9 mph 6.5 mph 98 % 0 in
05:12 39 °F 38.5 °F 30.2 in SW 6 mph 8.7 mph 98 % 0 in
05:17 39 °F 38.5 °F 30.2 in WSW 4 mph 8.7 mph 98 % 0 in
05:22 38.8 °F 38.5 °F 30.2 in Calm   6.5 mph 98 % 0 in
05:27 38.8 °F 38.5 °F 30.2 in WSW 3.6 mph 5.4 mph 98 % 0 in
05:32 38.8 °F 38.5 °F 30.2 in SSW 3.6 mph 5.6 mph 98 % 0 in
05:37 38.7 °F 38.1 °F 30.2 in SW 4.3 mph 6 mph 98 % 0 in
05:38 38.7 °F 38.1 °F 30.2 in SSW 3.1 mph 6 mph 98 % 0 in
05:43 38.7 °F 38.1 °F 30.2 in SW 2 mph 6 mph 98 % 0 in
05:48 38.5 °F 37.9 °F 30.2 in SSW 3.6 mph 6 mph 98 % 0 in
05:53 38.5 °F 37.9 °F 30.2 in SW 2.7 mph 4 mph 98 % 0 in
05:54 38.5 °F 37.9 °F 30.2 in SSW 1.6 mph 3.8 mph 98 % 0 in
05:59 38.5 °F 37.9 °F 30.2 in SSW 2.7 mph 5.6 mph 98 % 0 in
06:04 38.5 °F 37.9 °F 30.2 in SW 2.9 mph 5.6 mph 98 % 0 in
06:09 38.5 °F 37.9 °F 30.2 in Calm   4.3 mph 98 % 0 in
06:14 38.5 °F 37.9 °F 30.2 in SSW 2.9 mph 4.3 mph 98 % 0 in
06:19 38.5 °F 37.9 °F 30.2 in SSW 1.1 mph 3.8 mph 98 % 0 in
06:24 38.5 °F 37.8 °F 30.2 in South 1.1 mph 4 mph 98 % 0 in
06:29 38.5 °F 37.8 °F 30.2 in SSW 3.1 mph 4 mph 98 % 0 in
06:34 38.5 °F 37.8 °F 30.2 in South 3.8 mph 4 mph 98 % 0 in
06:39 38.1 °F 37.8 °F 30.2 in SSW 5.4 mph 5.6 mph 98 % 0 in
06:44 38.1 °F 37.8 °F 30.2 in SSW 2.9 mph 5.6 mph 98 % 0 in
06:49 37.9 °F 37.6 °F 30.2 in Calm   4.3 mph 98 % 0 in
06:54 37.9 °F 37.6 °F 30.2 in Calm   3.1 mph 98 % 0 in
06:59 37.9 °F 37.6 °F 30.2 in SSW 3.1 mph 4.3 mph 98 % 0 in
07:04 37.9 °F 37.6 °F 30.2 in Calm   4.9 mph 98 % 0 in
07:09 37.9 °F 37.6 °F 30.2 in South 3.6 mph 4.9 mph 98 % 0 in
07:14 37.8 °F 37.2 °F 30.2 in South 3.8 mph 4.3 mph 98 % 0 in
07:19 37.6 °F 37 °F 30.2 in Calm   4.7 mph 98 % 0 in
07:24 37.6 °F 37 °F 30.2 in Calm   4.7 mph 98 % 0 in
07:29 37.2 °F 36.9 °F 30.2 in Calm   3.1 mph 98 % 0 in
07:34 36.9 °F 36.3 °F 30.2 in South 2.7 mph 3.4 mph 98 % 0 in
07:39 36.9 °F 36.3 °F 30.2 in Calm   3.4 mph 98 % 0 in
07:44 36.9 °F 36.3 °F 30.2 in Calm   3.1 mph 98 % 0 in
07:49 36.9 °F 36.3 °F 30.2 in Calm   3.1 mph 98 % 0 in
07:54 36.9 °F 36.3 °F 30.2 in WSW 1.1 mph 3.4 mph 98 % 0 in
07:59 36.9 °F 36.3 °F 30.2 in Calm   3.4 mph 98 % 0 in
08:04 36.9 °F 36.3 °F 30.2 in SSW 4.9 mph 4.9 mph 98 % 0 in
08:09 36.9 °F 36.3 °F 30.2 in SSW 4.7 mph 5.6 mph 98 % 0 in
08:14 36.9 °F 36.3 °F 30.2 in SSW 3.6 mph 5.6 mph 98 % 0 in
08:20 37 °F 36.7 °F 30.2 in SSW 2.9 mph 4.3 mph 98 % 0 in
08:25 37.2 °F 36.9 °F 30.2 in SW 2.7 mph 4.7 mph 98 % 0 in
08:30 37.6 °F 37 °F 30.2 in Calm   4.7 mph 98 % 0 in
08:35 37.6 °F 37 °F 30.2 in SW 2.2 mph 4.3 mph 98 % 0 in
08:40 37.8 °F 37.2 °F 30.2 in South 1.6 mph 3.8 mph 98 % 0 in
08:45 37.9 °F 37.6 °F 30.2 in Calm   3.8 mph 98 % 0 in
08:50 38.5 °F 37.8 °F 30.2 in SW 4.7 mph 4.7 mph 98 % 0 in
08:55 38.5 °F 37.9 °F 30.2 in WSW 2.5 mph 4.7 mph 98 % 0 in
09:00 39 °F 38.5 °F 30.2 in WSW 2.7 mph 4.7 mph 98 % 0 in
09:05 39.4 °F 38.8 °F 30.2 in Calm   3.6 mph 98 % 0 in
09:10 39.7 °F 39.2 °F 30.2 in Calm   3.4 mph 98 % 0 in
09:15 40.1 °F 39.6 °F 30.2 in Calm   3.1 mph 98 % 0 in
09:20 40.3 °F 39.7 °F 30.2 in SW 4 mph 4.9 mph 98 % 0 in
09:25 40.6 °F 40.1 °F 30.2 in SW 5.6 mph 5.6 mph 98 % 0 in
09:30 40.8 °F 40.3 °F 30.2 in WSW 3.8 mph 6 mph 98 % 0 in
09:35 41.2 °F 40.6 °F 30.2 in WSW 5.6 mph 6.3 mph 98 % 0 in
09:40 41.5 °F 41 °F 30.2 in WSW 6 mph 7.4 mph 98 % 0 in
09:45 41.9 °F 41.4 °F 30.2 in WSW 6.3 mph 8.1 mph 98 % 0 in
09:50 42.1 °F 41.5 °F 30.2 in WSW 7.6 mph 8.1 mph 98 % 0 in
09:55 42.4 °F 41.9 °F 30.2 in SW 5.4 mph 11 mph 98 % 0 in
10:00 42.8 °F 42.3 °F 30.2 in WSW 6.5 mph 11 mph 98 % 0 in
10:01 43 °F 42.4 °F 30.2 in WSW 7.8 mph 11 mph 98 % 0 in
10:06 43.3 °F 42.8 °F 30.2 in WSW 6.3 mph 11 mph 98 % 0 in
10:11 44.1 °F 43.5 °F 30.2 in SW 6 mph 11 mph 98 % 0 in
10:16 44.4 °F 44.1 °F 30.2 in WSW 6.7 mph 9.2 mph 98 % 0 in
10:21 45 °F 44.2 °F 30.2 in WSW 8.1 mph 10.1 mph 98 % 0 in
10:26 45.9 °F 45.1 °F 30.2 in WSW 6.3 mph 10.1 mph 98 % 0 in
10:31 45.7 °F 45.1 °F 30.2 in SSW 6.5 mph 9.8 mph 98 % 0 in
10:36 45.7 °F 45.1 °F 30.2 in WSW 6 mph 8.5 mph 98 % 0 in
10:41 46.2 °F 45.9 °F 30.2 in WSW 7.4 mph 10.3 mph 98 % 0 in
10:51 46.9 °F 46.6 °F 30.2 in WSW 8.1 mph 11 mph 98 % 0 in
10:56 46.8 °F 46.2 °F 30.2 in WSW 7.8 mph 13.2 mph 98 % 0 in
11:01 47.5 °F 46.9 °F 30.2 in WSW 9.6 mph 13.2 mph 98 % 0 in
11:06 48 °F 47.1 °F 30.2 in WSW 10.1 mph 13 mph 97 % 0 in
11:11 48 °F 46.9 °F 30.2 in West 8.1 mph 13 mph 96 % 0 in
11:16 47.8 °F 46.6 °F 30.2 in WSW 11.9 mph 13.2 mph 95 % 0 in
11:21 48 °F 46.8 °F 30.2 in WSW 8.5 mph 13.4 mph 95 % 0 in
11:26 48 °F 46.4 °F 30.2 in West 13 mph 13.4 mph 94 % 0 in
11:31 48.2 °F 46.6 °F 30.2 in WSW 8.1 mph 13 mph 94 % 0 in
11:36 48 °F 46 °F 30.2 in WSW 7.8 mph 14.3 mph 93 % 0 in
11:41 48 °F 46 °F 30.2 in WSW 10.3 mph 14.3 mph 93 % 0 in
11:46 48.4 °F 46.6 °F 30.2 in West 10.1 mph 13.9 mph 93 % 0 in
11:51 48.4 °F 46.6 °F 30.2 in West 10.5 mph 13 mph 93 % 0 in
11:56 48.4 °F 46.6 °F 30.2 in WSW 10.3 mph 13 mph 93 % 0 in
12:01 48.4 °F 46.6 °F 30.2 in West 9.8 mph 13.4 mph 93 % 0 in
12:06 48.6 °F 46.6 °F 30.2 in West 10.3 mph 13.4 mph 93 % 0 in
12:11 48.7 °F 46.8 °F 30.2 in WSW 13.4 mph 15.2 mph 93 % 0 in
12:16 48.7 °F 46.8 °F 30.2 in West 9.8 mph 15.2 mph 93 % 0 in
12:21 48.7 °F 46.8 °F 30.2 in WSW 10.7 mph 13.4 mph 93 % 0 in
12:26 48.7 °F 46.8 °F 30.2 in WSW 10.3 mph 12.8 mph 93 % 0 in
12:31 48.9 °F 46.9 °F 30.2 in WSW 14.3 mph 14.3 mph 93 % 0 in
12:36 49.1 °F 46.9 °F 30.2 in WSW 10.3 mph 14.3 mph 92 % 0 in
12:41 49.5 °F 47.1 °F 30.2 in WSW 10.3 mph 14.3 mph 92 % 0 in
12:46 49.8 °F 47.7 °F 30.2 in WSW 12.3 mph 13.6 mph 92 % 0 in
12:56 50.2 °F 47.8 °F 30.2 in WSW 12.1 mph 17.4 mph 92 % 0 in
13:01 50.2 °F 47.7 °F 30.2 in West 11 mph 17.4 mph 91 % 0 in
13:06 50.2 °F 47.7 °F 30.2 in West 13 mph 14.8 mph 91 % 0 in
13:11 50.4 °F 47.8 °F 30.2 in WSW 10.7 mph 13 mph 91 % 0 in
13:16 50.5 °F 48 °F 30.2 in West 10.1 mph 12.8 mph 91 % 0 in
13:21 50.5 °F 47.7 °F 30.2 in West 7.8 mph 14.5 mph 90 % 0 in
13:26 50.7 °F 47.8 °F 30.2 in WSW 12.5 mph 14.5 mph 90 % 0 in
13:31 51.1 °F 48.2 °F 30.2 in WSW 12.1 mph 14.1 mph 90 % 0 in
13:36 51.3 °F 48 °F 30.2 in West 12.8 mph 15.9 mph 89 % 0 in
13:41 51.4 °F 48 °F 30.2 in WSW 8.5 mph 15.9 mph 88 % 0 in
13:46 51.6 °F 48 °F 30.2 in West 9.2 mph 14.5 mph 88 % 0 in
13:51 51.6 °F 48 °F 30.2 in SW 8.1 mph 13.2 mph 88 % 0 in
13:56 51.6 °F 47.8 °F 30.2 in WSW 12.1 mph 12.3 mph 87 % 0 in
14:01 51.4 °F 47.5 °F 30.2 in West 9.8 mph 12.5 mph 86 % 0 in
14:06 51.3 °F 47.5 °F 30.2 in WSW 8.7 mph 12.5 mph 87 % 0 in
14:11 51.1 °F 47.3 °F 30.2 in West 7.8 mph 12.5 mph 87 % 0 in
14:16 51.1 °F 47.7 °F 30.2 in WSW 9.8 mph 12.5 mph 88 % 0 in
14:21 51.1 °F 47.3 °F 30.2 in West 12.5 mph 13.4 mph 87 % 0 in
14:26 51.3 °F 47.1 °F 30.2 in WSW 5.4 mph 13.4 mph 86 % 0 in
14:31 51.3 °F 47.1 °F 30.2 in West 6.5 mph 11 mph 86 % 0 in
14:36 51.4 °F 46.9 °F 30.2 in WNW 8.1 mph 10.1 mph 85 % 0 in
14:41 51.6 °F 46.9 °F 30.2 in West 7.8 mph 10.7 mph 84 % 0 in
14:46 51.8 °F 47.1 °F 30.2 in West 4.9 mph 10.7 mph 84 % 0 in
14:51 52.2 °F 47.1 °F 30.2 in West 5.6 mph 12.5 mph 83 % 0 in
14:56 52.3 °F 46.9 °F 30.2 in West 6 mph 12.8 mph 82 % 0 in
15:01 52.5 °F 47.1 °F 30.2 in West 5.8 mph 12.8 mph 82 % 0 in
15:06 52.5 °F 46.8 °F 30.2 in West 9.6 mph 13 mph 81 % 0 in
15:11 52.5 °F 46.8 °F 30.1 in WNW 8.1 mph 13 mph 81 % 0 in
15:16 52.5 °F 46.6 °F 30.1 in WNW 8.5 mph 9.6 mph 80 % 0 in
15:21 52.5 °F 46 °F 30.1 in West 6.5 mph 9.8 mph 79 % 0 in
15:26 52.5 °F 46.2 °F 30.2 in WNW 7.4 mph 9.8 mph 79 % 0 in
15:31 52.5 °F 46.2 °F 30.2 in West 8.1 mph 8.5 mph 79 % 0 in
15:36 52.5 °F 46.2 °F 30.2 in WNW 4 mph 13.9 mph 79 % 0 in
15:41 52.5 °F 46 °F 30.2 in NE 4.9 mph 13.9 mph 78 % 0 in
15:46 52.5 °F 45.9 °F 30.2 in West 3.6 mph 12.3 mph 78 % 0 in
15:51 52.5 °F 46.2 °F 30.2 in West 5.6 mph 12.3 mph 79 % 0 in
15:56 52.5 °F 45.9 °F 30.2 in WNW 5.8 mph 10.3 mph 78 % 0 in
16:01 52.5 °F 46.2 °F 30.2 in West 5.4 mph 10.3 mph 79 % 0 in
16:06 52.5 °F 45.9 °F 30.2 in West 7.6 mph 10.1 mph 78 % 0 in
16:11 52.5 °F 46 °F 30.2 in WNW 3.8 mph 10.1 mph 79 % 0 in
16:16 52.5 °F 46.2 °F 30.2 in West 10.5 mph 12.1 mph 79 % 0 in
16:21 52.5 °F 45.7 °F 30.2 in WSW 9.4 mph 14.1 mph 77 % 0 in
16:26 52.5 °F 46 °F 30.2 in West 4.3 mph 14.1 mph 78 % 0 in
16:31 52.3 °F 45.7 °F 30.2 in West 6.5 mph 12.8 mph 78 % 0 in
16:37 52.2 °F 45.1 °F 30.2 in WSW 7.4 mph 11.4 mph 77 % 0 in
16:42 52 °F 45 °F 30.2 in West 8.5 mph 13.4 mph 77 % 0 in
16:47 52 °F 45 °F 30.2 in West 6.5 mph 13.4 mph 77 % 0 in
16:52 51.8 °F 45.1 °F 30.2 in West 6.7 mph 11 mph 78 % 0 in
16:57 51.6 °F 45.3 °F 30.2 in West 8.5 mph 11 mph 79 % 0 in
17:02 51.6 °F 45.7 °F 30.2 in West 6.5 mph 10.1 mph 80 % 0 in
17:07 51.3 °F 45.7 °F 30.2 in West 8.5 mph 11 mph 81 % 0 in
17:12 51.3 °F 45.7 °F 30.2 in WSW 8.1 mph 12.3 mph 81 % 0 in
17:17 51.3 °F 45.7 °F 30.2 in West 9.6 mph 12.3 mph 81 % 0 in
17:22 51.1 °F 45.7 °F 30.2 in WSW 6.5 mph 11 mph 82 % 0 in
17:27 50.9 °F 45.7 °F 30.2 in WSW 7.4 mph 10.5 mph 82 % 0 in
17:32 50.9 °F 45.7 °F 30.2 in WSW 8.1 mph 11 mph 82 % 0 in
17:37 50.7 °F 45.3 °F 30.1 in West 6 mph 11 mph 82 % 0 in
17:42 50.5 °F 45.7 °F 30.1 in West 6.7 mph 10.5 mph 83 % 0 in
17:47 50.4 °F 45.3 °F 30.1 in WSW 9.4 mph 10.1 mph 83 % 0 in
17:52 50.2 °F 45.1 °F 30.2 in WSW 8.5 mph 10.5 mph 83 % 0 in
17:57 50 °F 45 °F 30.2 in WSW 5.6 mph 10.5 mph 83 % 0 in
18:02 49.8 °F 45.1 °F 30.2 in WSW 6 mph 10.1 mph 84 % 0 in
18:07 49.8 °F 45.1 °F 30.2 in WSW 7.6 mph 10.5 mph 84 % 0 in
18:12 49.6 °F 45 °F 30.2 in West 8.1 mph 11 mph 84 % 0 in
18:17 49.5 °F 45.1 °F 30.2 in WSW 10.1 mph 12.3 mph 85 % 0 in
18:22 49.3 °F 45 °F 30.1 in WSW 6.3 mph 12.3 mph 85 % 0 in
18:27 49.1 °F 44.8 °F 30.1 in West 6.5 mph 10.5 mph 85 % 0 in
18:32 49.1 °F 45.1 °F 30.1 in West 8.5 mph 10.5 mph 86 % 0 in
18:37 48.9 °F 44.6 °F 30.2 in West 8.5 mph 10.5 mph 85 % 0 in
18:42 48.9 °F 44.6 °F 30.2 in WSW 8.5 mph 11 mph 85 % 0 in
18:47 48.6 °F 44.2 °F 30.2 in West 6.3 mph 11 mph 85 % 0 in
18:52 48.4 °F 44.1 °F 30.2 in West 7.2 mph 9.6 mph 85 % 0 in
18:57 48.2 °F 43.9 °F 30.2 in WSW 5.4 mph 9.8 mph 85 % 0 in
19:02 48 °F 43.9 °F 30.2 in WSW 6.5 mph 9.8 mph 85 % 0 in
19:07 47.7 °F 43.7 °F 30.2 in WSW 8.5 mph 9.8 mph 86 % 0 in
19:12 47.5 °F 43.5 °F 30.2 in WSW 7.8 mph 10.1 mph 86 % 0 in
19:17 47.1 °F 43.2 °F 30.2 in WSW 8.5 mph 10.1 mph 86 % 0 in
19:22 46.8 °F 42.8 °F 30.2 in West 6 mph 8.7 mph 86 % 0 in
19:27 46.6 °F 42.4 °F 30.2 in WSW 5.4 mph 8.7 mph 86 % 0 in
19:32 46 °F 42.3 °F 30.2 in WSW 4.9 mph 6.5 mph 86 % 0 in
19:37 45.9 °F 42.1 °F 30.2 in WSW 3.6 mph 5.8 mph 87 % 0 in
19:42 45.1 °F 41.2 °F 30.2 in WSW 3.4 mph 4.9 mph 86 % 0 in
19:47 44.4 °F 40.6 °F 30.2 in WSW 4.3 mph 4.3 mph 86 % 0 in
19:52 44.2 °F 40.6 °F 30.2 in WSW 4.5 mph 4.9 mph 87 % 0 in
19:57 44.1 °F 40.6 °F 30.2 in WSW 4 mph 4.9 mph 88 % 0 in
20:02 43.5 °F 40.1 °F 30.2 in WSW 3.8 mph 4.9 mph 88 % 0 in
20:07 43.3 °F 40.3 °F 30.2 in WSW 3.8 mph 4.3 mph 89 % 0 in
20:12 43.3 °F 40.6 °F 30.2 in WSW 4.3 mph 4.7 mph 90 % 0 in
20:17 43.3 °F 40.8 °F 30.2 in WSW 4.7 mph 5.8 mph 91 % 0 in
20:22 43.5 °F 41 °F 30.2 in WSW 4.7 mph 5.8 mph 91 % 0 in
20:27 43.5 °F 41.5 °F 30.2 in WSW 3.8 mph 5.8 mph 92 % 0 in
20:32 43.9 °F 41.9 °F 30.2 in WSW 4.3 mph 5.6 mph 93 % 0 in
20:37 44.2 °F 42.3 °F 30.2 in WSW 4.5 mph 6 mph 93 % 0 in
20:42 44.2 °F 42.4 °F 30.2 in WSW 4.9 mph 7.2 mph 93 % 0 in
20:47 44.8 °F 43.2 °F 30.2 in WSW 4.9 mph 7.2 mph 94 % 0 in
20:52 45 °F 43.3 °F 30.2 in WSW 5.4 mph 6.7 mph 94 % 0 in
20:57 45.1 °F 43.3 °F 30.2 in WSW 6 mph 6.3 mph 94 % 0 in
21:02 45.1 °F 43.3 °F 30.2 in WSW 7.2 mph 7.2 mph 94 % 0 in
21:07 45.1 °F 43.9 °F 30.2 in WSW 4.9 mph 7.2 mph 95 % 0 in
21:12 45.7 °F 44.2 °F 30.2 in WSW 5.8 mph 7.2 mph 95 % 0 in
21:17 45.7 °F 44.2 °F 30.2 in WSW 5.8 mph 6.5 mph 95 % 0 in
21:22 45.9 °F 44.4 °F 30.2 in West 5.8 mph 8.5 mph 95 % 0 in
21:23 45.9 °F 44.4 °F 30.2 in WSW 7.4 mph 8.5 mph 95 % 0 in
21:28 45.9 °F 44.6 °F 30.2 in WSW 6.3 mph 8.5 mph 95 % 0 in
21:33 45.9 °F 45 °F 30.2 in WSW 6 mph 7.4 mph 96 % 0 in
21:38 45.9 °F 45 °F 30.2 in WSW 5.4 mph 7.2 mph 96 % 0 in
21:43 46 °F 44.8 °F 30.2 in WSW 4.3 mph 7.2 mph 95 % 0 in
21:48 46 °F 44.8 °F 30.2 in WSW 6.3 mph 7.8 mph 95 % 0 in
21:53 46 °F 44.8 °F 30.2 in WSW 6.3 mph 7.8 mph 95 % 0 in
21:58 46.2 °F 45 °F 30.2 in WSW 7.4 mph 8.7 mph 95 % 0 in
22:03 46.6 °F 45.3 °F 30.2 in WSW 7.8 mph 8.7 mph 96 % 0 in
22:08 46.6 °F 45.3 °F 30.2 in WSW 6 mph 8.7 mph 96 % 0 in
22:13 46.6 °F 45.7 °F 30.2 in SW 4.9 mph 8.7 mph 96 % 0 in
22:18 46.6 °F 45.7 °F 30.2 in WSW 4.9 mph 7.8 mph 96 % 0 in
22:23 46.8 °F 45.7 °F 30.2 in SW 4 mph 7.6 mph 96 % 0 in
22:28 46.8 °F 45.7 °F 30.2 in SW 4.7 mph 6 mph 96 % 0 in
22:33 46.8 °F 45.7 °F 30.2 in SW 4.3 mph 6.3 mph 96 % 0 in
22:38 46.8 °F 45.7 °F 30.2 in SW 6.3 mph 6.5 mph 96 % 0 in
22:43 46.9 °F 45.7 °F 30.2 in SW 4.3 mph 6.5 mph 95 % 0 in
22:48 46.9 °F 45.7 °F 30.2 in SW 5.6 mph 6 mph 95 % 0 in
22:53 46.9 °F 45.7 °F 30.2 in Calm   5.6 mph 95 % 0 in
22:58 46.9 °F 45.7 °F 30.2 in Calm   5.6 mph 95 % 0 in
23:03 46.9 °F 45.7 °F 30.2 in South 2.5 mph 6 mph 95 % 0 in
23:08 46.9 °F 45.7 °F 30.2 in Calm   6.3 mph 95 % 0 in
23:13 46.9 °F 45.7 °F 30.2 in SW 4.3 mph 6.3 mph 95 % 0 in
23:18 46.9 °F 45.7 °F 30.2 in WSW 4.9 mph 7.2 mph 95 % 0 in
23:23 46.9 °F 45.7 °F 30.2 in Calm   7.2 mph 95 % 0 in
23:28 46.9 °F 45.7 °F 30.2 in SSW 3.1 mph 6 mph 95 % 0 in
23:33 46.9 °F 45.7 °F 30.2 in SW 5.4 mph 6.5 mph 95 % 0 in
23:38 46.9 °F 45.7 °F 30.2 in Calm   6.5 mph 95 % 0 in
23:43 46.9 °F 45.7 °F 30.2 in SSW 4 mph 6 mph 95 % 0 in
23:48 46.9 °F 45.7 °F 30.2 in SSW 3.8 mph 6 mph 95 % 0 in
23:53 46.9 °F 45.7 °F 30.2 in WSW 5.6 mph 6 mph 95 % 0 in
23:58 46.9 °F 45.7 °F 30.2 in SW 6 mph 7.6 mph 95 % 0 in
Le Gheer Warneton
Courtoisie de Weather Underground - 2.25 mb

Mise a jour : 18/12/2017 03:58:13
Généré par Cumulus 1.9.4 (1099)